Weather History for Asheboro, NC

Change the Weather History Date:

Wednesday, April 3, 2013

  Actual Average Record
Temperature  
Mean Temperature 50 °F -  
Max Temperature 58 °F 70 °F 91 °F (1946)
Min Temperature 41 °F 45 °F 26 °F (1992)
Degree Days  
Heating Degree Days 16    
Moisture  
Dew Point 17 °F    
Average Humidity 28    
Maximum Humidity 50    
Minimum Humidity 19    
Precipitation  
Precipitation 0.00 in - - ()
Sea Level Pressure  
Sea Level Pressure 30.25 in    
Wind  
Wind Speed 4 mph (North)    
Max Wind Speed 12 mph    
Max Gust Speed 20 mph    
Visibility 10 miles    
Events      
Averages and records for this station are not official NWS values.
T = Trace of Precipitation, MM = Missing Value Source: NWS Daily Summary

Daily Weather History Graph

Daily Weather History Graph

Search for Another Location

Airport:

Trip Planner

Search our weather history database for the weather conditions in past years. The results will help you decide how hot, cold, wet, or windy it might be!

Date:

Astronomy

Apr. 03, 2013 Rise Set
Actual Time 7:02 AM EDT 7:43 PM EDT
Civil Twilight 6:37 AM EDT 8:08 PM EDT
Nautical Twilight 6:06 AM EDT 8:39 PM EDT
Astronomical Twilight 5:35 AM EDT 9:10 PM EDT
Moon 2:29 AM EDT (4/3) 1:06 PM EDT (4/3)
Length of Visible Light 13h 31m
Length of Day
12h 40m
Last Quarter, 45% of the Moon is Illuminated
Apr 3
Last Quarter
Apr 10
New
Apr 18
First Quarter
Apr 25
Full
May 2
Last Quarter

Hourly Weather History & Observations

Time (EDT) Temp. Windchill Dew Point Humidity Pressure Visibility Wind Dir Wind Speed Gust Speed Precip Events Conditions
12:15 AM 47.5 °F - 29.7 °F 50% 30.16 in 10.0 mi Calm Calm - N/A   Overcast
12:35 AM 48.0 °F - 26.2 °F 43% 30.17 in 10.0 mi Calm Calm - N/A   Mostly Cloudy
12:55 AM 49.1 °F - 21.0 °F 33% 30.17 in 10.0 mi NE 3.5 mph - N/A   Scattered Clouds
1:15 AM 50.0 °F - 18.1 °F 28% 30.18 in 10.0 mi NE 3.5 mph - N/A   Clear
1:35 AM 49.5 °F - 16.7 °F 27% 30.19 in 10.0 mi Calm Calm - N/A   Scattered Clouds
1:55 AM 49.1 °F - 15.8 °F 27% 30.21 in 10.0 mi Calm Calm - N/A   Mostly Cloudy
2:15 AM 49.1 °F - 15.6 °F 26% 30.21 in 10.0 mi Calm Calm - N/A   Overcast
2:35 AM 48.4 °F - 14.2 °F 25% 30.22 in 10.0 mi NE 5.8 mph - N/A   Mostly Cloudy
2:55 AM 47.7 °F - 14.5 °F 27% 30.22 in 10.0 mi Calm Calm - N/A   Mostly Cloudy
3:15 AM 47.3 °F - 13.8 °F 26% 30.21 in 10.0 mi NNE 5.8 mph - N/A   Scattered Clouds
3:35 AM 46.6 °F - 14.0 °F 27% 30.20 in 10.0 mi NNE 5.8 mph - N/A   Scattered Clouds
3:55 AM 45.5 °F 44.2 °F 14.4 °F 29% 30.20 in 10.0 mi NNE 3.5 mph - N/A   Scattered Clouds
4:15 AM 45.0 °F 42.6 °F 14.7 °F 30% 30.20 in 10.0 mi NNE 4.6 mph - N/A   Scattered Clouds
4:35 AM 44.6 °F 42.2 °F 14.4 °F 30% 30.21 in 10.0 mi NNE 4.6 mph - N/A   Mostly Cloudy
4:55 AM 44.6 °F 40.7 °F 13.8 °F 29% 30.21 in 10.0 mi NNE 6.9 mph - N/A   Overcast
5:15 AM 44.6 °F 40.2 °F 12.9 °F 28% 30.21 in 10.0 mi NNE 8.1 mph - N/A   Mostly Cloudy
5:35 AM 44.2 °F 39.7 °F 12.7 °F 28% 30.22 in 10.0 mi NNE 8.1 mph - N/A   Overcast
5:55 AM 43.7 °F 39.7 °F 12.7 °F 29% 30.22 in 10.0 mi NNE 6.9 mph - N/A   Mostly Cloudy
6:15 AM 42.8 °F 39.3 °F 13.1 °F 30% 30.22 in 10.0 mi NNE 5.8 mph - N/A   Mostly Cloudy
6:35 AM 42.1 °F 39.2 °F 12.9 °F 31% 30.23 in 10.0 mi NNE 4.6 mph - N/A   Clear
6:55 AM 41.5 °F - 12.7 °F 31% 30.24 in 10.0 mi Calm Calm - N/A   Clear
7:15 AM 41.2 °F - 12.7 °F 31% 30.26 in 10.0 mi Calm Calm - N/A   Clear
7:55 AM 41.0 °F 39.0 °F 15.1 °F 35% 30.28 in 10.0 mi North 3.5 mph - N/A   Scattered Clouds
8:15 AM 41.9 °F 39.0 °F 14.5 °F 33% 30.29 in 10.0 mi North 4.6 mph - N/A   Clear
8:35 AM 43.2 °F 37.9 °F 13.8 °F 31% 30.30 in 10.0 mi NNE 9.2 mph - N/A   Clear
8:55 AM 44.1 °F 39.5 °F 14.0 °F 30% 30.31 in 10.0 mi North 8.1 mph - N/A   Clear
9:15 AM 44.8 °F 39.0 °F 13.6 °F 28% 30.31 in 10.0 mi North 11.5 mph - N/A   Clear
9:35 AM 46.0 °F 40.6 °F 14.0 °F 28% 30.31 in 10.0 mi North 11.5 mph - N/A   Clear
9:55 AM 46.2 °F 43.3 °F 13.8 °F 27% 30.31 in 10.0 mi NNE 5.8 mph - N/A   Clear
10:15 AM 47.5 °F - 13.6 °F 26% 30.31 in 10.0 mi North 11.5 mph 19.6 mph N/A   Clear
10:35 AM 47.7 °F - 13.8 °F 26% 30.30 in 10.0 mi NE 5.8 mph - N/A   Clear
10:55 AM 49.1 °F - 15.1 °F 26% 30.30 in 10.0 mi NNE 8.1 mph - N/A   Clear
11:15 AM 49.6 °F - 14.7 °F 25% 30.30 in 10.0 mi NNE 6.9 mph - N/A   Clear
11:35 AM 50.5 °F - 15.1 °F 24% 30.29 in 10.0 mi North 11.5 mph - N/A   Clear
11:55 AM 50.2 °F - 15.1 °F 25% 30.29 in 10.0 mi North 8.1 mph - N/A   Clear
12:15 PM 50.4 °F - 14.5 °F 24% 30.29 in 10.0 mi Calm Calm - N/A   Clear
12:35 PM 51.3 °F - 16.2 °F 25% 30.28 in 10.0 mi Calm Calm - N/A   Clear
12:55 PM 52.3 °F - 16.5 °F 24% 30.28 in 10.0 mi NE 4.6 mph - N/A   Clear
1:15 PM 52.5 °F - 15.6 °F 23% 30.27 in 10.0 mi North 6.9 mph - N/A   Clear
1:35 PM 54.0 °F - 17.2 °F 24% 30.26 in 10.0 mi West 8.1 mph - N/A   Clear
1:55 PM 53.6 °F - 16.7 °F 23% 30.26 in 10.0 mi North 8.1 mph - N/A   Clear
2:15 PM 54.1 °F - 17.1 °F 23% 30.25 in 10.0 mi East 5.8 mph - N/A   Clear
2:35 PM 55.4 °F - 16.3 °F 22% 30.24 in 10.0 mi ENE 6.9 mph - N/A   Clear
2:55 PM 55.9 °F - 18.0 °F 23% 30.23 in 10.0 mi Calm Calm - N/A   Clear
3:15 PM 56.1 °F - 16.3 °F 21% 30.23 in 10.0 mi Calm Calm - N/A   Clear
3:55 PM 57.2 °F - 18.0 °F 22% 30.24 in 10.0 mi WSW 6.9 mph - N/A   Clear
4:15 PM 58.1 °F - 18.3 °F 21% 30.23 in 10.0 mi NNW 5.8 mph - N/A   Clear
4:35 PM 57.7 °F - 16.9 °F 20% 30.24 in 10.0 mi NNW 8.1 mph - N/A   Clear
4:55 PM 57.7 °F - 16.2 °F 20% 30.23 in 10.0 mi NNW 6.9 mph - N/A   Clear
5:15 PM 57.9 °F - 17.2 °F 20% 30.24 in 10.0 mi WNW 4.6 mph - N/A   Clear
5:35 PM 57.9 °F - 16.2 °F 20% 30.24 in 10.0 mi NW 8.1 mph - N/A   Clear
5:55 PM 57.6 °F - 15.4 °F 19% 30.24 in 10.0 mi North 5.8 mph - N/A   Clear
6:15 PM 57.2 °F - 16.2 °F 20% 30.24 in 10.0 mi North 3.5 mph - N/A   Clear
6:35 PM 57.2 °F - 16.3 °F 20% 30.24 in 10.0 mi North 5.8 mph - N/A   Clear
6:55 PM 56.7 °F - 16.9 °F 21% 30.24 in 10.0 mi North 3.5 mph - N/A   Clear
7:15 PM 56.3 °F - 16.5 °F 21% 30.24 in 10.0 mi Calm Calm - N/A   Clear
7:35 PM 53.1 °F - 20.1 °F 28% 30.24 in 10.0 mi Calm Calm - N/A   Clear
7:55 PM 51.4 °F - 22.5 °F 32% 30.25 in 10.0 mi Calm Calm - N/A   Clear
8:15 PM 50.7 °F - 22.5 °F 33% 30.25 in 10.0 mi Calm Calm - N/A   Clear
8:35 PM 50.0 °F - 22.8 °F 34% 30.26 in 10.0 mi Calm Calm - N/A   Clear
8:55 PM 50.0 °F - 22.1 °F 33% 30.27 in 10.0 mi Calm Calm - N/A   Clear
9:15 PM 48.7 °F - 24.4 °F 39% 30.27 in 10.0 mi Calm Calm - N/A   Clear
9:35 PM 49.6 °F - 22.8 °F 35% 30.28 in 10.0 mi Calm Calm - N/A   Clear
9:55 PM 50.0 °F - 23.4 °F 35% 30.29 in 10.0 mi Calm Calm - N/A   Clear
10:15 PM 50.7 °F - 21.2 °F 31% 30.31 in 10.0 mi Calm Calm - N/A   Clear
10:35 PM 48.7 °F - 25.0 °F 40% 30.31 in 10.0 mi Calm Calm - N/A   Clear
11:15 PM 48.9 °F - 25.3 °F 40% 30.31 in 10.0 mi Calm Calm - N/A   Clear
11:35 PM 49.1 °F - 26.4 °F 41% 30.31 in 10.0 mi Calm Calm - N/A   Clear
11:55 PM 48.0 °F - 26.6 °F 43% 30.30 in 10.0 mi Calm Calm - N/A   Clear